Location: 22
(39.7117°N, 89.5929°W)
Time: 08:54:37
(UTC-06:00)

Vanguard 2 - Visible Passes

Search period start: 27 January 2023 00:00
Search period end: 06 February 2023 00:00
Orbit: 554 x 2930 km, 32.9° (Epoch: 26 January)

Date Brightness Start Highest point End Pass type
(mag) Time Alt. Az. Time Alt. Az. Time Alt. Az.
27 Jan 11.1 01:37:45 26° E 01:37:45 26° E 01:42:12 10° E visible
27 Jan 9.9 03:39:04 63° SSW 03:39:18 63° SSW 03:51:17 10° ESE visible
27 Jan 10.2 05:40:23 19° W 05:49:06 36° SW 05:57:57 10° SSE visible
27 Jan 11.3 21:09:44 10° S 21:11:52 15° S 21:11:52 15° S visible
27 Jan12.023:52:11E23:52:11E23:13:13SWvisible
28 Jan 10.9 01:53:29 32° ESE 01:53:29 32° ESE 01:59:08 10° E visible
28 Jan 10.0 03:54:48 56° SW 03:56:08 58° SSW 04:07:54 10° SE visible
28 Jan 10.4 05:56:08 15° W 06:05:26 29° SW 06:13:47 10° SSE visible
28 Jan 11.3 21:25:11 10° SSW 21:27:54 17° SSW 21:27:54 17° SSW visible
29 Jan12.000:07:57E00:07:57E23:29:14WSWvisible
29 Jan 10.7 02:09:15 37° ESE 02:09:15 37° ESE 02:16:00 10° ESE visible
29 Jan 10.1 04:10:35 49° SW 04:12:51 52° SSW 04:24:24 10° SE visible
29 Jan 10.7 06:11:54 10° W 06:21:39 22° SW 06:29:10 10° S visible
29 Jan 11.1 19:38:32 10° SSE 19:42:37 14° SE 19:42:37 14° SE visible
29 Jan 11.2 21:41:01 10° SSW 21:43:57 19° SSW 21:43:57 19° SSW visible
30 Jan 10.6 02:25:03 42° SE 02:25:03 42° SE 02:32:49 10° ESE visible
30 Jan 10.2 04:26:22 41° SW 04:29:27 45° SSW 04:40:42 10° SE visible
30 Jan 10.9 06:30:24 10° W 06:37:46 16° SW 06:43:48 10° SSW visible
30 Jan 10.9 19:52:32 10° S 19:58:41 20° SSE 19:58:41 20° SSE visible
30 Jan 11.2 21:57:09 10° SW 22:00:02 19° SW 22:00:02 19° SW visible
31 Jan 10.5 02:40:53 46° SE 02:40:53 46° SE 02:49:33 10° ESE visible
31 Jan 10.4 04:42:13 34° WSW 04:45:55 38° SW 04:56:47 10° SSE visible
31 Jan 10.7 20:07:31 10° S 20:14:46 26° SSE 20:14:46 26° SSE visible
31 Jan 11.2 22:13:29 10° SW 22:16:07 19° SW 22:16:07 19° SW visible
01 Feb 11.6 00:55:26 13° E 00:55:26 13° E 00:56:31 10° E visible
01 Feb 10.4 02:56:46 47° SSE 02:56:46 47° SSE 03:06:08 10° SE visible
01 Feb 10.6 04:58:05 27° WSW 05:02:15 31° SW 05:12:32 10° SSE visible
01 Feb 10.5 20:23:04 10° SSW 20:30:51 32° SSE 20:30:51 32° SSE visible
01 Feb 11.3 22:30:01 10° WSW 22:32:12 18° SW 22:32:12 18° SW visible
02 Feb 11.5 01:11:20 16° ESE 01:11:20 16° ESE 01:13:24 10° ESE visible
02 Feb 10.4 03:12:40 46° S 03:12:40 46° S 03:22:34 10° SE visible
02 Feb 10.8 05:14:00 21° WSW 05:18:28 24° SW 05:27:51 10° S visible
02 Feb 11.0 18:37:05 10° SSE 18:42:11 14° SE 18:45:35 12° ESE visible
02 Feb 10.4 20:38:57 10° SSW 20:46:56 37° S 20:46:56 37° S visible
02 Feb 11.4 22:46:39 10° WSW 22:48:16 16° WSW 22:48:16 16° WSW visible
03 Feb 11.4 01:27:17 19° ESE 01:27:17 19° ESE 01:30:12 10° ESE visible
03 Feb 10.5 03:28:37 42° S 03:28:37 42° S 03:38:49 10° SE visible
03 Feb 11.0 05:29:58 16° WSW 05:34:36 18° SW 05:42:26 10° SSW visible
03 Feb 10.7 18:50:59 10° S 18:58:14 19° SE 19:01:38 18° ESE visible
03 Feb 10.3 20:55:07 10° SW 21:02:58 41° S 21:02:58 41° S visible
03 Feb 11.5 23:03:24 10° WSW 23:04:19 13° WSW 23:04:19 13° WSW visible
04 Feb 11.3 01:43:16 22° ESE 01:43:16 22° ESE 01:46:54 10° ESE visible
04 Feb 10.6 03:44:36 37° SSW 03:44:36 37° SSW 03:54:47 10° SSE visible
04 Feb 11.2 05:45:57 10° WSW 05:50:40 12° SW 05:55:18 10° SSW visible
04 Feb 10.5 19:06:01 10° S 19:14:22 26° SE 19:17:40 24° ESE visible
04 Feb 10.3 21:11:28 10° SW 21:19:00 43° SSW 21:19:00 43° SSW visible
04 Feb 11.6 23:20:13 10° WSW 23:20:19 10° WSW 23:20:19 10° WSW visible
05 Feb 11.3 01:59:17 23° SE 01:59:17 23° SE 02:03:27 10° SE visible
05 Feb 10.8 04:00:38 31° SSW 04:00:38 31° SSW 04:10:25 10° SSE visible
05 Feb 10.3 19:21:36 10° SSW 19:30:35 33° SE 19:33:39 30° ESE visible
05 Feb 10.3 21:27:58 10° WSW 21:34:59 42° SW 21:34:59 42° SW visible
